Location: Anuling
(14.1239°N, 120.8922°E)
Time: 00:45:12
(UTC+00:00)

GPS 2-17 Rocket1 - Pass Details

Date: 12 April 2026
Orbit: 544 x 613 km, 20.3° (Epoch: 19 May)

Event Time Altitude Azimuth Distance (km) Brightness Sun altitude
Rises 12:24:56 0° 288° (WNW) 2,854 7.6 -32.6°
Reaches altitude 10° 12:27:22 10° 295° (WNW) 1,946 6.4 -33.1°
Enters shadow 12:29:14 23° 306° (NW) 1,300 5.2 -33.6°
